This demonstration page uses our WeatherBlox Daily Observations layout. Learn more.

Left ArrowRight Arrow

Hourly Observations for October 6, 2016

Temp ( °F °C ) Dew Point ( °F °C ) Humidity (%) Winds ( mph kmh ) Pressure ( in mb ) Visibility ( mi km ) Precip ( " mm )
12:16 am 00:16 Clear 63 17 61 16 94 94 N N/A 30.12 1020 10 16 N/A
12:36 am 00:36 Clear 61 16 59 15 94 94 N N/A 30.12 1020 10 16 N/A
12:56 am 00:56 Clear 63 17 61 16 94 94 N N/A 30.12 1020 10 16 N/A
1:16 am 01:16 Clear 63 17 61 16 94 94 SSE 3 6 30.12 1020 10 16 N/A
1:36 am 01:36 Clear 63 17 61 16 94 94 SSE 3 6 30.12 1020 10 16 N/A
1:56 am 01:56 Clear 63 17 61 16 94 94 N N/A 30.12 1020 10 16 N/A
2:16 am 02:16 Clear 61 16 61 16 100 100 SSE 3 6 30.12 1020 10 16 N/A
2:36 am 02:36 Clear 63 17 61 16 94 94 SSE 3 6 30.12 1020 10 16 N/A
2:56 am 02:56 Clear 63 17 61 16 94 94 SSE 3 6 30.12 1020 7 11 N/A
3:16 am 03:16 Clear 63 17 61 16 94 94 SSE 3 6 30.12 1020 7 11 N/A
3:36 am 03:36 Clear 63 17 61 16 94 94 SSE 3 6 30.12 1020 7 11 N/A
3:56 am 03:56 Clear 63 17 61 16 94 94 SSE 3 6 30.12 1020 7 11 N/A
4:16 am 04:16 Clear 63 17 61 16 94 94 N N/A 30.12 1020 7 11 N/A
4:36 am 04:36 Partly Cloudy 63 17 61 16 94 94 N N/A 30.12 1020 10 16 N/A
4:56 am 04:56 Mostly Cloudy 63 17 61 16 94 94 N N/A 30.12 1020 10 16 N/A
5:16 am 05:16 Mostly Cloudy 63 17 61 16 94 94 N N/A 30.12 1020 10 16 N/A
5:36 am 05:36 Partly Cloudy 61 16 59 15 94 94 N N/A 30.12 1020 5 8 N/A
5:56 am 05:56 Clear 59 15 57 14 94 94 SE 3 6 30.12 1020 3 5 N/A
6:16 am 06:16 Clear 61 16 61 16 100 100 SE 5 7 30.12 1020 10 16 N/A
6:36 am 06:36 Clear 61 16 59 15 94 94 SSE 3 6 30.12 1020 10 16 N/A
6:56 am 06:56 Clear 63 17 59 15 88 88 SE 3 6 30.12 1020 10 16 N/A
7:16 am 07:16 Clear 61 16 59 15 94 94 SE 5 7 30.12 1020 10 16 N/A
7:36 am 07:36 Mostly Cloudy 63 17 59 15 88 88 SSE 5 7 30.15 1021 10 16 N/A
7:56 am 07:56 Partly Cloudy 61 16 59 15 94 94 SSE 5 7 30.15 1021 10 16 N/A
8:15 am 08:15 Sunny 63 17 59 15 88 88 SSE 3 6 30.15 1021 10 16 N/A
8:36 am 08:36 Sunny 63 17 59 15 88 88 SSE 5 7 30.15 1021 10 16 N/A
8:56 am 08:56 Sunny 64 18 61 16 88 88 SSE 5 7 30.15 1021 10 16 N/A
9:15 am 09:15 Sunny 66 19 61 16 83 83 SSE 6 9 30.15 1021 10 16 N/A
9:36 am 09:36 Sunny 68 20 61 16 78 78 S 5 7 30.18 1022 10 16 N/A
9:56 am 09:56 Sunny 70 21 61 16 73 73 S 5 7 30.18 1022 10 16 N/A
10:15 am 10:15 Sunny 72 22 61 16 69 69 SSE 6 9 30.18 1022 10 16 N/A
10:36 am 10:36 Sunny 73 23 63 17 69 69 SSE 5 7 30.15 1021 10 16 N/A
10:56 am 10:56 Partly Cloudy 73 23 61 16 65 65 S 8 13 30.15 1021 10 16 N/A
11:15 am 11:15 Partly Cloudy 75 24 61 16 61 61 S 5 7 30.15 1021 10 16 N/A
11:36 am 11:36 Partly Cloudy 77 25 63 17 61 61 S 7 11 30.15 1021 10 16 N/A
11:56 am 11:56 Sunny 79 26 63 17 58 58 SSE 7 11 30.15 1021 5 8 N/A
12:15 pm 12:15 Sunny 79 26 63 17 58 58 SSW 7 11 30.15 1021 7 11 N/A
12:36 pm 12:36 Sunny 81 27 63 17 54 54 S 9 15 30.15 1021 10 16 N/A
12:56 pm 12:56 Sunny 81 27 63 17 54 54 S 9 15 30.15 1021 10 16 N/A
1:15 pm 13:15 Sunny 82 28 63 17 51 51 SSW 6 9 30.15 1021 10 16 N/A
1:36 pm 13:36 Partly Cloudy 82 28 63 17 51 51 SSW 5 7 30.15 1021 10 16 N/A
1:56 pm 13:56 Partly Cloudy 81 27 63 17 54 54 S 5 7 30.12 1020 10 16 N/A
2:16 pm 14:16 Mostly Cloudy 81 27 63 17 54 54 SSW 8 13 30.12 1020 10 16 N/A
2:36 pm 14:36 Mostly Cloudy 84 29 63 17 48 48 S 7 11 30.12 1020 10 16 N/A
2:56 pm 14:56 Partly Cloudy 84 29 63 17 48 48 SSW 9 15 30.12 1020 10 16 N/A
3:16 pm 15:16 Partly Cloudy 84 29 63 17 48 48 S 8 13 30.12 1020 10 16 N/A
3:36 pm 15:36 Partly Cloudy 84 29 63 17 48 48 SSW 6 9 30.12 1020 10 16 N/A
3:56 pm 15:56 Partly Cloudy 81 27 63 17 54 54 SSW 3 6 30.12 1020 10 16 N/A
4:16 pm 16:16 Partly Cloudy 84 29 63 17 48 48 S 7 11 30.09 1019 10 16 N/A
4:36 pm 16:36 Sunny 82 28 61 16 48 48 SSE 6 9 30.09 1019 10 16 N/A
4:56 pm 16:56 Mostly Cloudy 82 28 61 16 48 48 S 6 9 30.09 1019 10 16 N/A
5:16 pm 17:16 Partly Cloudy 82 28 61 16 48 48 S 7 11 30.09 1019 10 16 N/A
5:36 pm 17:36 Partly Cloudy 81 27 63 17 54 54 SE 5 7 30.09 1019 10 16 N/A
5:56 pm 17:56 Mostly Cloudy 81 27 63 17 54 54 SSE 7 11 30.09 1019 10 16 N/A
6:15 pm 18:15 Mostly Cloudy 81 27 63 17 54 54 SE 6 9 30.09 1019 10 16 N/A
6:36 pm 18:36 Cloudy 81 27 63 17 54 54 SE 6 9 30.09 1019 10 16 N/A
6:56 pm 18:56 Cloudy 79 26 63 17 58 58 SE 5 7 30.09 1019 10 16 N/A
7:16 pm 19:16 Mostly Cloudy 77 25 63 17 61 61 SE 3 6 30.09 1019 10 16 N/A
7:36 pm 19:36 Partly Cloudy 75 24 63 17 65 65 SE 5 7 30.09 1019 10 16 N/A
7:56 pm 19:56 Clear 73 23 63 17 69 69 SE 3 6 30.09 1019 10 16 N/A
8:16 pm 20:16 Clear 73 23 63 17 69 69 SSE 3 6 30.09 1019 10 16 N/A
8:36 pm 20:36 Clear 72 22 61 16 69 69 SE 5 7 30.09 1019 10 16 N/A
8:56 pm 20:56 Clear 72 22 61 16 69 69 SE 5 7 30.09 1019 10 16 N/A
9:16 pm 21:16 Clear 70 21 61 16 73 73 SE 5 7 30.09 1019 10 16 N/A
9:36 pm 21:36 Clear 70 21 61 16 73 73 SE 5 7 30.12 1020 10 16 N/A
9:56 pm 21:56 Clear 70 21 61 16 73 73 SE 5 7 30.12 1020 10 16 N/A
10:16 pm 22:16 Clear 68 20 61 16 78 78 SE 3 6 30.09 1019 10 16 N/A
10:36 pm 22:36 Clear 68 20 61 16 78 78 N N/A 30.12 1020 10 16 N/A
10:56 pm 22:56 Clear 66 19 61 16 83 83 SE 3 6 30.09 1019 10 16 N/A
11:16 pm 23:16 Clear 68 20 61 16 78 78 SE 6 9 30.09 1019 10 16 N/A
11:36 pm 23:36 Clear 68 20 61 16 78 78 SE 5 7 30.12 1020 10 16 N/A
11:56 pm 23:56 Clear 66 19 59 15 78 78 SE 6 9 30.12 1020 10 16 N/A

Powered by AerisWeather